Regional Weather Roundup
Issued by NWS

Home | Current Version | Previous Version | Graphics & Text | Print | Product List | Glossary On
Versions: 1 2 3 4 5 6 7 8 9 10 11 12 13 14 15 16 17 18 19 20 21 22 23 24 25 26 27 28 29 30 31 32 33 34 35 36 37 38 39 40 41 42 43 44 45 46 47 48 49 50
000
ASUS43 KIND 271209
RWRIN

WEATHER ROUNDUP FOR INDIANA
NATIONAL WEATHER SERVICE INDIANAPOLIS IN
800 AM EDT WED AUG 27 2014

NOTE: "FAIR" INDICATES FEW OR NO CLOUDS BELOW 12,000 FEET WITH NO
SIGNIFICANT WEATHER AND/OR OBSTRUCTIONS TO VISIBILITY.

* - STATION DOES NOT REPORT WEATHER SUCH AS PRECIPITATION OR FOG.

+ - STATION NOT QUALITY CONTROLLED BY THE NATIONAL WEATHER SERVICE.
    USE DATA WITH CAUTION...ESPECIALLY DEWPOINT AND RELATIVE
    HUMIDITY OBSERVATIONS.

INZ001>003-010>013-019-020-271300-
NORTHWEST INDIANA

CITY           SKY/WX    TMP DP  RH WIND       PRES   REMARKS
GARY /AIRPORT/ PTCLDY    68  66  94 CALM      30.14R
KNOX *+        CLEAR     65  63  93 N3        30.12S
LA PORTE +     PTCLDY    64  64 100 NE6       30.14S
6HR MIN TEMP:  62; 6HR MAX TEMP:  66;

MICHIGAN CITY+ PTCLDY    63  63 100 CALM      30.14R FOG
MONTICELLO +   HVY RAIN  69  69 100 NE5       30.11R
RENSSELAER +   CLEAR     68  66  94 CALM      30.12S
VALPARAISO     PTCLDY    66  61  84 CALM      30.14R
6HR MIN TEMP:  64; 6HR MAX TEMP:  67;


$$

LMZ046-743>745-271300-
SOUTHERN LAKE MICHIGAN

STATION/POSITION TIME  TEMP WIND        PRES
                       AIR  DIR/SP/G
                 (UTC) (F)  (DEG/KT/KT) (MB)
MICHIGAN CITY    1200   67   60/  4/  6   N/A

$$

INZ004-005-014>016-021>024-271300-
NORTH CENTRAL INDIANA

CITY           SKY/WX    TMP DP  RH WIND       PRES   REMARKS
ELKHART        CLEAR     64  63  94 CALM      30.14R
GOSHEN         MOCLDY    67  63  87 N5        30.13R
6HR MIN TEMP:  66; 6HR MAX TEMP:  73;

LOGANSPORT +   FOG       68  68 100 CALM      30.13R VSB 1/2
PERU/GRISSOM   FOG       70  70 100 NE8       30.12R VSB 3/4
6HR MIN TEMP:  68; 6HR MAX TEMP:  71;

ROCHESTER +    CLOUDY    70  70 100 CALM      30.12S FOG
SOUTH BEND     PTCLDY    65  62  90 CALM      30.13S
6HR MIN TEMP:  64; 6HR MAX TEMP:  67;

WARSAW +       CLOUDY    64  64 100 CALM      30.12R

$$

INZ006>009-017-018-025>027-271300-
NORTHEAST INDIANA

CITY           SKY/WX    TMP DP  RH WIND       PRES   REMARKS
ANGOLA *+      PTCLDY    64  61  88 N5        30.12S
AUBURN +       PTCLDY    68  63  83 N5        30.12S
FORT WAYNE     CLOUDY    71  68  90 N5        30.12R FOG
6HR MIN TEMP:  69; 6HR MAX TEMP:  71; 6HR PCP:  0.09;

HUNTINGTON +   CLOUDY    69  69 100 CALM      30.12S FOG
6HR MIN TEMP:  68; 6HR MAX TEMP:  70; 6HR PCP:  0.09;


$$

INZ028-029-035-036-043>045-051>053-271300-
WEST CENTRAL INDIANA

CITY           SKY/WX    TMP DP  RH WIND       PRES   REMARKS
GREENCASTLE +  PTCLDY    68  68 100 CALM      30.11R FOG
LAFAYETTE      CLOUDY    68  68 100 NE7       30.11R FOG
6HR MIN TEMP:  65; 6HR MAX TEMP:  68;

TERRE HAUTE    PTCLDY    69  67  93 CALM      30.10R
6HR MIN TEMP:  67; 6HR MAX TEMP:  71;


$$

INZ030>032-037>040-046>048-054>057-064-065-271300-
CENTRAL INDIANA

CITY           SKY/WX    TMP DP  RH WIND       PRES   REMARKS
CP ATTERBURY +   N/A     68  64  88 CALM      30.11S FOG
COLUMBUS       CLEAR     68  68 100 CALM      30.11R FOG
FRANKFORT +    PTCLDY   N/A N/A N/A CALM      30.12S FOG
INDIANAPOLIS   MOCLDY    71  69  93 CALM      30.09R
6HR MIN TEMP:  70; 6HR MAX TEMP:  73;

-EAGLE CREEK   MOCLDY    72  68  87 CALM      30.10R
6HR MIN TEMP:  71; 6HR MAX TEMP:  73;

KOKOMO *+      CLOUDY    70  66  88 NE7       30.11S VSB<1/4
MARION +       CLOUDY    67  67  99 CALM      30.13R FOG
MT COMFORT *+    N/A     70 N/A N/A CALM      30.10S
SHELBYVILLE    MOCLDY    70  68  93 S3        30.10S FOG
6HR MIN TEMP:  69; 6HR MAX TEMP:  70;

ZIONSVILLE +   MOCLDY    69  66  90 CALM      30.12R
6HR MIN TEMP:  68; 6HR MAX TEMP:  69;


$$

INZ033-034-041-042-049-050-058-059-271300-
EAST CENTRAL INDIANA

CITY           SKY/WX    TMP DP  RH WIND       PRES   REMARKS
MUNCIE         CLEAR     68  66  93 CALM      30.11R FOG
6HR MIN TEMP:  68; 6HR MAX TEMP:  72;


$$

INZ060-061-067>069-081>083-085>088-271300-
SOUTHWEST INDIANA

CITY           SKY/WX    TMP DP  RH WIND       PRES   REMARKS
EVANSVILLE     CLEAR     75  71  87 NE3       30.10R FOG
6HR MIN TEMP:  74; 6HR MAX TEMP:  77;

WASHINGTON +   PTCLDY    70  70 100 CALM      30.10R FOG
6HR MIN TEMP:  69; 6HR MAX TEMP:  72;


$$

INZ062-063-066-070>080-084-089>092-271300-
SOUTH CENTRAL AND SOUTHEAST INDIANA

CITY           SKY/WX    TMP DP  RH WIND       PRES   REMARKS
BLOOMINGTON    MOCLDY    69  68  96 CALM      30.11S FOG
6HR MIN TEMP:  67; 6HR MAX TEMP:  70;

SEYMOUR +      HAZE      70  64  83 CALM      30.10  VSB 1

$$



USA.gov is the U.S. government's official web portal to all federal, state and local government web resources and services.